GFSFLT2_sfc_thetae_366.txt.gz
Theta_e
320 320 321 318 316 320 312 313 309 311 315 322 326 326 324 324 325 327 329 330 332 333 337 340 343 351 358 366 369 368 367 369
319 321 322 318 320 311 312 306 304 308 311 310 317 319 322 322 322 325 327 328 330 331 334 340 344 355 359 366 367 369 369 370
319 316 314 314 312 313 314 310 305 304 307 318 320 321 320 321 324 325 329 331 333 334 337 341 348 356 358 361 365 368 372 370
316 320 320 318 314 313 307 308 310 308 308 321 322 321 323 323 328 329 330 332 337 339 343 355 354 357 360 365 366 371 371 371
313 316 319 316 317 317 316 314 309 306 309 321 323 323 325 325 328 333 336 336 340 346 347 354 355 357 357 362 362 366 370 366
308 311 316 313 315 316 314 309 309 310 312 318 323 323 325 327 330 331 334 337 339 346 351 361 361 362 361 360 358 363 363 361
317 317 316 315 313 314 314 314 310 311 313 321 324 326 327 328 330 331 335 336 339 342 351 357 360 361 359 356 358 360 361 360
312 315 316 314 315 316 315 315 315 315 317 325 326 325 324 327 328 333 333 334 337 342 348 353 356 358 358 357 359 360 362 360
310 315 314 310 314 315 316 317 316 312 320 323 322 322 323 326 330 330 331 332 337 339 346 353 354 354 343 353 353 361 363 362
311 314 304 314 319 320 317 318 321 322 322 323 323 323 323 327 326 327 329 332 338 342 347 344 343 349 352 349 355 357 359 360
310 309 313 315 318 319 317 316 323 321 322 322 323 322 323 326 329 330 334 336 338 340 341 340 342 343 349 350 350 348 349 351
314 308 306 317 321 324 323 312 322 322 320 320 321 313 318 327 326 329 333 338 337 338 338 344 349 349 350 349 351 350 354 356
313 311 313 320 323 323 310 314 323 322 322 321 318 322 327 327 331 333 337 337 340 339 338 344 346 348 347 349 348 350 352 351
314 310 308 323 322 315 322 325 324 323 322 321 324 325 327 329 333 334 336 336 337 337 339 341 343 344 345 343 348 349 346 346
316 315 327 325 324 325 326 325 324 323 323 325 325 326 328 330 333 334 335 336 336 335 335 339 342 343 340 343 345 345 345 342
319 320 322 324 325 328 328 325 325 326 327 328 326 328 328 333 334 334 334 333 335 335 336 337 341 342 341 342 344 343 340 340
316 320 323 323 326 327 327 329 328 329 329 328 328 328 332 332 334 335 334 338 336 336 337 338 341 341 341 342 343 339 338 338
313 322 322 324 326 326 325 327 329 328 328 329 329 328 331 333 335 335 336 336 338 337 337 338 340 339 342 343 342 339 336 335
319 324 325 325 326 328 328 327 328 328 329 328 330 330 330 332 335 332 338 336 336 335 337 338 341 338 343 339 341 337 335 336

GFSFLT2_sfc_thetae_369.txt.gz
Theta_e
317 314 312 310 303 308 301 304 301 305 310 317 319 319 322 318 319 320 321 324 324 329 334 335 335 335 335 354 356 359 358 357
318 315 315 313 312 301 302 295 295 302 304 306 314 315 316 314 315 320 322 325 329 332 333 334 333 332 347 359 357 356 356 356
320 311 306 306 303 301 302 299 296 299 299 311 314 314 313 315 318 320 322 324 327 328 333 332 330 328 357 358 357 356 356 358
312 312 315 308 304 305 298 297 298 298 299 314 313 316 317 322 325 325 325 327 327 331 335 342 332 347 350 354 354 354 358 356
309 309 314 309 309 316 304 302 300 296 304 318 321 321 321 322 322 323 327 328 331 332 331 341 345 348 352 354 357 359 358 357
302 304 309 307 309 308 306 298 299 299 309 316 318 317 319 319 323 326 327 327 327 331 335 344 345 347 350 352 354 356 357 355
306 309 309 308 309 310 304 306 304 304 310 311 314 315 316 319 327 326 325 326 327 328 329 342 349 346 342 337 331 334 335 351
302 312 311 309 311 311 310 310 311 312 309 315 317 317 319 322 322 322 322 325 327 332 336 340 334 335 338 341 333 329 326 338
303 309 309 304 309 310 311 312 314 308 311 317 316 317 317 317 319 320 322 323 326 332 333 335 338 337 335 334 336 332 331 330
303 305 296 308 315 316 315 317 317 317 317 318 316 316 316 317 317 319 322 328 328 331 332 336 336 335 332 336 340 339 338 341
302 300 306 313 315 314 312 311 318 316 317 318 318 317 317 320 320 324 327 328 328 330 331 336 337 338 340 339 340 342 341 344
307 301 298 313 319 321 317 306 318 319 316 315 316 306 311 321 327 329 330 331 331 331 331 333 335 337 335 336 335 334 335 340
307 305 308 317 319 321 304 307 319 318 316 314 312 315 320 326 328 329 330 330 330 329 330 330 332 334 333 334 332 338 337 335
308 305 303 321 318 312 316 318 319 318 316 316 318 320 324 327 327 328 327 329 328 326 327 328 332 332 331 330 335 335 335 336
310 311 319 320 319 321 321 318 317 316 320 321 322 322 325 325 326 326 326 326 327 327 326 328 331 332 330 331 333 334 334 332
312 316 317 321 323 324 323 321 322 323 323 324 322 324 324 327 325 326 326 326 328 326 326 327 331 332 332 333 334 332 330 329
313 316 320 322 322 323 324 325 326 326 326 324 323 323 324 324 325 326 327 328 328 326 329 329 331 332 335 333 334 330 329 328
309 317 316 317 320 324 323 324 324 324 325 325 325 325 323 322 325 327 327 329 328 329 328 327 329 330 331 333 331 328 328 327
317 320 320 321 326 328 325 326 327 325 324 321 323 326 325 321 326 324 328 327 327 326 326 328 330 328 330 333 332 329 327 329

GFSFLT2_sfc_thetae_375.txt.gz
Theta_e
323 319 315 303 301 305 298 297 298 301 304 311 314 313 315 316 317 318 322 327 332 333 333 333 334 335 337 339 339 340 342 343
318 315 309 304 305 296 295 294 292 296 298 301 306 308 313 314 315 317 320 323 325 327 328 329 333 336 336 331 332 339 342 344
311 305 303 303 301 295 295 296 293 292 296 305 307 308 312 315 318 319 320 322 324 325 327 328 329 328 326 333 345 346 345 348
310 316 314 305 300 296 295 294 293 295 300 314 312 314 318 318 320 321 324 325 327 329 331 332 331 332 339 346 348 348 346 344
304 305 307 304 302 297 295 295 293 295 300 314 312 316 318 317 318 318 322 324 325 327 329 337 340 337 338 344 344 337 336 337
299 301 303 302 305 302 298 295 294 298 304 306 309 313 315 315 315 316 320 326 329 332 334 336 335 333 334 336 335 332 331 331
305 306 305 304 304 304 299 298 300 304 303 304 310 313 313 312 315 320 322 326 328 328 330 333 335 335 335 333 333 333 331 329
302 306 307 305 307 309 308 307 305 305 303 309 311 309 308 311 319 321 324 326 328 329 330 328 328 329 329 329 332 330 327 326
298 303 303 302 305 307 308 309 306 303 305 310 308 310 309 315 318 320 322 326 327 328 329 331 331 331 330 327 331 331 329 329
297 297 294 304 311 313 310 310 309 309 310 311 309 310 315 318 320 321 322 325 327 328 328 329 332 331 332 333 332 333 333 332
298 296 301 309 311 310 308 307 313 309 311 313 313 313 316 323 324 322 322 323 325 328 326 326 328 331 330 329 329 328 329 331
301 299 298 308 317 319 316 304 315 311 310 311 310 303 307 319 324 325 325 323 323 326 327 324 322 327 327 325 325 325 325 328
302 299 304 314 319 318 301 303 313 312 312 311 308 310 314 322 322 323 323 323 323 323 322 321 322 324 323 322 322 326 326 328
301 298 298 314 313 307 309 310 313 314 314 315 316 318 320 321 321 321 321 322 323 321 321 322 323 322 320 320 325 327 327 327
303 303 312 314 313 314 312 312 313 316 317 317 316 317 320 320 320 320 321 321 323 321 321 322 323 321 318 320 325 325 325 325
306 311 312 314 316 317 317 317 318 319 318 317 316 317 316 318 318 319 321 321 323 321 320 320 322 322 317 318 320 323 324 325
306 310 310 313 316 317 319 320 320 321 319 318 317 317 316 316 317 318 319 319 320 319 319 319 321 322 322 321 324 324 324 324
305 310 309 309 313 319 319 319 319 318 317 319 319 317 318 317 318 319 319 319 318 318 318 320 321 321 322 323 323 323 322 322
311 313 315 317 319 320 317 317 318 317 317 316 319 319 318 318 319 318 318 318 318 317 319 319 318 317 319 320 319 318 317 320

GFSFLT2_sfc_thetae_378.txt.gz
Theta_e
322 320 316 304 303 305 297 295 298 300 304 309 312 312 315 316 317 317 319 324 326 328 331 330 329 331 333 334 335 337 338 339
317 313 308 302 303 295 296 294 292 296 297 300 307 309 311 313 315 318 321 323 324 325 328 329 331 334 333 332 334 337 341 342
311 305 305 301 297 294 296 295 293 292 296 303 308 308 313 317 319 320 322 324 326 329 334 332 334 337 339 343 347 348 348 346
310 313 311 304 298 296 294 292 293 295 299 311 313 316 318 316 319 321 324 327 332 336 340 340 338 339 344 344 343 343 345 346
301 302 304 303 300 295 295 295 293 295 299 313 315 315 316 315 317 321 327 330 333 336 337 337 335 334 337 337 337 336 335 338
299 300 303 303 303 301 298 295 294 296 302 308 312 313 313 314 318 323 326 327 328 329 332 334 334 334 334 335 336 336 335 333
304 306 304 303 305 304 301 298 298 300 302 305 311 312 312 315 322 324 325 327 328 327 327 328 329 329 331 332 334 335 332 331
303 307 306 306 307 309 307 305 304 303 304 309 312 309 312 318 322 323 325 327 328 329 330 329 330 330 330 331 332 334 333 333
298 302 303 301 307 307 308 309 306 303 305 310 309 309 314 317 321 323 325 326 328 331 330 329 329 331 329 331 333 332 331 332
298 300 295 304 311 311 309 310 309 309 308 311 312 315 315 320 321 323 326 328 330 329 328 327 330 331 331 331 331 330 330 331
298 297 302 308 310 309 309 307 313 309 311 311 314 319 320 324 325 323 325 326 327 328 327 327 325 326 330 329 327 326 327 329
300 300 298 306 316 318 313 304 314 312 311 310 310 304 308 322 327 327 328 325 324 325 327 324 323 323 326 325 323 322 325 327
303 300 304 313 319 319 303 304 313 311 312 311 309 310 315 322 326 327 325 324 324 324 323 323 324 324 322 321 319 322 326 327
300 297 297 314 314 308 309 311 313 314 315 316 317 318 322 323 322 322 322 324 324 323 322 323 324 322 321 319 321 323 324 326
302 302 310 313 313 314 312 312 315 316 317 318 318 319 321 321 320 322 322 323 324 322 321 321 322 322 320 322 321 322 323 325
306 309 312 316 317 318 319 317 319 319 319 318 318 318 318 318 319 320 322 322 323 320 319 319 322 323 323 323 323 322 320 322
306 309 311 315 317 318 320 321 320 320 320 318 318 317 318 318 319 320 321 321 320 319 318 319 321 320 322 321 321 319 321 321
305 311 309 310 315 319 319 319 319 318 319 321 319 318 319 319 320 320 319 319 319 319 318 322 318 318 319 320 319 317 317 319
310 312 313 316 319 320 317 317 318 317 319 319 321 320 320 319 319 317 318 319 319 318 321 320 315 315 317 318 318 316 314 317

GFSFLT2_sfc_thetae_381.txt.gz
Theta_e
325 326 322 314 314 315 309 307 309 312 315 318 320 321 323 325 328 329 331 332 334 336 338 340 342 342 342 344 348 350 351 353
321 320 312 314 313 308 311 305 303 307 308 314 318 320 322 325 327 330 333 337 342 342 346 350 352 354 356 356 356 357 356 355
319 313 312 309 309 306 310 308 307 304 309 316 318 319 321 325 328 332 335 339 343 345 347 351 354 352 351 355 355 357 360 360
317 321 318 315 310 310 307 305 307 308 310 320 320 322 324 326 331 334 337 340 344 345 344 344 345 346 345 347 347 348 354 355
310 312 314 312 309 308 309 310 308 307 310 321 323 323 324 327 330 333 335 337 339 340 340 340 341 343 343 344 346 347 347 347
310 312 311 309 309 309 309 309 308 310 313 318 320 320 323 328 331 333 334 335 336 336 338 339 340 341 342 342 345 346 346 345
315 313 311 310 310 308 309 310 310 311 314 319 321 320 324 328 331 331 332 333 334 334 335 336 337 339 340 340 342 344 343 342
309 310 311 311 312 312 311 310 312 313 313 321 323 320 323 328 329 330 331 332 334 334 333 333 335 338 340 339 342 343 341 340
309 308 309 307 312 312 313 313 314 312 317 321 315 319 324 327 329 330 330 332 333 332 333 335 336 339 339 341 343 341 338 339
310 308 301 311 316 316 315 314 315 316 318 318 318 321 325 329 330 331 332 332 334 335 335 335 337 336 336 337 340 337 334 333
307 306 309 312 315 315 315 314 317 317 317 319 323 326 325 329 331 333 334 335 334 334 336 338 335 336 335 334 333 331 330 331
309 306 304 314 317 321 319 312 318 319 317 319 324 314 320 330 332 331 332 333 331 332 334 334 334 334 332 331 330 330 330 332
312 310 312 317 320 322 311 314 319 320 320 321 318 323 325 332 332 331 331 331 334 332 330 331 331 331 330 330 330 330 331 331
311 310 306 319 320 316 321 321 320 321 322 323 325 327 330 331 330 330 330 330 330 329 329 330 331 330 329 328 329 329 329 326
313 313 319 322 321 322 323 323 323 326 327 329 327 327 329 330 329 329 328 329 330 328 328 330 330 329 326 327 328 324 322 323
316 318 319 319 322 324 326 326 327 328 327 327 326 328 328 329 328 328 328 328 328 328 327 328 329 327 326 326 326 323 322 322
315 318 320 321 324 326 327 328 327 327 327 327 327 326 327 327 328 328 327 327 328 328 327 325 322 324 325 324 323 321 320 320
314 325 324 324 326 328 326 326 327 326 325 326 327 327 327 327 329 327 326 328 328 328 323 322 322 322 321 321 321 320 317 317
322 325 323 325 327 328 327 326 326 326 327 325 327 327 327 328 327 322 328 328 326 323 322 322 321 318 318 319 320 319 317 315

GFSFLT2_sfc_thetae_384.txt.gz
Theta_e
328 331 327 324 319 323 314 315 310 315 320 325 327 328 330 332 335 336 338 339 341 344 347 348 350 351 352 355 357 359 358 359
326 328 321 321 323 314 314 305 304 311 314 316 323 325 330 331 334 339 343 344 346 347 349 351 355 360 362 360 360 362 363 363
324 321 319 316 315 315 315 313 308 307 312 325 325 326 329 332 336 338 340 340 342 345 349 349 348 349 349 350 351 354 358 359
321 323 325 322 319 317 311 311 312 311 313 326 326 329 331 333 336 338 340 341 342 343 344 344 343 344 345 347 347 349 351 352
317 316 321 319 317 318 316 316 312 309 314 328 329 329 332 333 335 337 338 339 340 340 339 339 341 341 340 339 340 343 346 344
312 315 318 313 314 316 316 311 313 313 319 324 326 327 331 332 334 334 336 336 336 337 338 338 339 339 339 338 340 341 344 341
321 318 316 314 313 314 314 316 313 316 315 324 327 328 330 333 333 333 332 333 335 335 336 336 337 338 339 339 342 343 344 342
316 314 315 313 316 315 315 316 317 317 318 329 329 330 330 330 330 330 332 334 334 334 334 335 338 339 341 342 345 345 345 343
312 315 313 311 316 317 318 319 319 316 323 328 325 326 328 329 330 330 332 333 334 334 335 338 337 340 340 341 343 342 339 338
313 315 302 315 321 320 318 320 322 322 325 328 326 328 329 331 331 331 332 333 336 338 338 339 340 341 341 338 337 336 336 336
311 308 313 316 318 318 319 319 323 324 325 326 326 327 328 333 334 334 335 337 338 337 337 340 339 338 336 335 335 335 335 335
312 309 308 318 323 325 324 316 324 326 325 325 326 320 326 334 335 335 335 338 336 336 336 336 336 336 335 334 335 334 334 335
316 312 317 323 324 326 314 318 324 326 326 327 324 328 334 335 335 335 337 336 337 335 333 334 336 336 334 334 333 334 334 332
317 314 310 326 324 320 327 329 327 327 327 328 329 331 333 334 335 334 334 334 333 332 331 333 336 334 332 332 332 331 331 329
320 320 325 328 329 329 330 328 328 328 328 330 330 330 332 333 334 334 333 334 331 331 331 333 334 333 330 329 329 328 329 328
321 324 324 326 328 330 331 330 331 332 332 329 327 329 330 333 334 333 333 330 331 331 331 331 330 330 328 327 326 326 325 325
322 324 325 325 328 330 331 332 330 330 329 328 329 330 332 332 332 332 332 331 332 332 330 326 329 327 324 324 324 322 322 323
318 329 326 328 330 331 330 328 330 330 329 330 330 330 331 331 333 333 331 332 332 331 329 327 327 324 323 323 323 322 320 320
325 330 329 331 333 332 330 331 331 331 332 329 330 330 329 331 332 325 332 331 330 328 327 327 325 322 321 321 321 320 318 317